Chehalis, WA
on Wednesday, December 26, 2012

Wednesday
Previous Day Next Day
Daily Summary
 ActualAverage (KOLM)Record (KOLM)
Temperature
Mean Temperature °F 38°F  
Max Temperature 44°F 44°F 62°F (1980)
Min Temperature 39°F 33°F 17°F (1948)
Degree Days
Heating Degree Days 24 27  
Month to date heating degree days 691  
Since 1 July heating degree days 2136  
Cooling Degree Days 0 0  
Month to date cooling degree days 0  
Year to date cooling degree days 106  
Moisture
Dew Point 40°F   
Average Humidity 93    
Maximum Humidity 100    
Minimum Humidity 81    
Precipitation
Precipitation 0.12 in 0.24 in 2.45 in (1980)
Month to date precipitation 6.33  
Year to date precipitation 48.87  
Wind
Wind Speed 6 mph   
Max Wind Speed 12 mph   
Max Gust Speed 16 mph   
Visibility 8 miles   
Events Rain   

Key: T is trace of precipitation, MM is missing value
Source: NWS Daily Summary
Time(PST)TemperatureDew PointHumidity Pressure Visibility Wind DirectionWind SpeedGust SpeedPrecipitationEvents Conditions
12:15 AM 41.0°F 39.2°F 93% 29.71 in 8.0 miles South 4.6 mph - N/A   Overcast
12:35 AM 41.0°F 39.2°F 93% 29.71 in 10.0 miles SSE 4.6 mph - N/A Rain Light Rain
12:55 AM 41.0°F 39.2°F 93% 29.71 in 9.0 miles SSE 4.6 mph - N/A   Overcast
1:15 AM 41.0°F 39.2°F 93% 29.71 in 7.0 miles South 4.6 mph - N/A Rain Light Rain
1:35 AM 41.0°F 39.2°F 93% 29.71 in 6.0 miles South 4.6 mph - 0.02 in Rain Light Rain
1:55 AM 41.0°F 39.2°F 93% 29.72 in 6.0 miles South 3.5 mph - 0.04 in Rain Light Rain
2:15 AM 41.0°F 39.2°F 93% 29.72 in 8.0 miles SW 3.5 mph - N/A Rain Light Rain
2:35 AM 41.0°F 39.2°F 93% 29.73 in 10.0 miles South 4.6 mph - N/A Rain Light Rain
2:55 AM 41.0°F 39.2°F 93% 29.73 in 8.0 miles South 4.6 mph - N/A   Overcast
3:15 AM 41.0°F 39.2°F 93% 29.73 in 9.0 miles South 4.6 mph - N/A   Overcast
3:35 AM 41.0°F 39.2°F 93% 29.73 in 10.0 miles South 4.6 mph - N/A   Overcast
3:55 AM 41.0°F 39.2°F 93% 29.73 in 5.0 miles South 4.6 mph - N/A   Overcast
4:15 AM 41.0°F 39.2°F 93% 29.73 in 10.0 miles South 5.8 mph - N/A   Overcast
4:35 AM 41.0°F 39.2°F 93% 29.73 in 10.0 miles South 6.9 mph - N/A   Overcast
4:55 AM 41.0°F 39.2°F 93% 29.73 in 10.0 miles South 8.1 mph - N/A   Overcast
5:15 AM 41.0°F 37.4°F 87% 29.74 in 10.0 miles South 8.1 mph - N/A   Overcast
5:35 AM 39.2°F 37.4°F 93% 29.74 in 6.0 miles SSW 4.6 mph - 0.01 in   Overcast
5:55 AM 39.2°F 39.2°F 100% 29.74 in 10.0 miles South 6.9 mph - 0.01 in   Overcast
6:15 AM 39.2°F 39.2°F 100% 29.74 in 6.0 miles SSE 8.1 mph - N/A   Overcast
6:35 AM 39.2°F 37.4°F 93% 29.75 in 10.0 miles South 5.8 mph - 0.01 in   Mostly Cloudy
6:55 AM 39.2°F 37.4°F 93% 29.76 in 10.0 miles SW 4.6 mph - 0.01 in   Overcast
7:15 AM 39.2°F 37.4°F 93% 29.76 in 10.0 miles South 5.8 mph - N/A   Overcast
7:35 AM 39.2°F 37.4°F 93% 29.77 in 10.0 miles South 8.1 mph - N/A   Overcast
8:15 AM 39.2°F 39.2°F 100% 29.77 in 3.0 miles SSE 8.1 mph - 0.01 in Rain Light Rain
8:35 AM 39.2°F 39.2°F 100% 29.78 in 10.0 miles South 9.2 mph - 0.02 in   Overcast
8:55 AM 41.0°F 39.2°F 93% 29.79 in 3.0 miles South 9.2 mph - 0.02 in   Overcast
9:15 AM 41.0°F 39.2°F 93% 29.80 in 10.0 miles South 8.1 mph - N/A   Mostly Cloudy
9:35 AM 41.0°F 39.2°F 93% 29.80 in 10.0 miles South 9.2 mph - N/A   Overcast
9:55 AM 41.0°F 39.2°F 93% 29.81 in 10.0 miles South 5.8 mph - N/A   Overcast
10:15 AM 41.0°F 39.2°F 93% 29.82 in 10.0 miles South 6.9 mph - N/A   Overcast
10:35 AM 41.0°F 39.2°F 93% 29.82 in 10.0 miles SSE 6.9 mph - N/A   Overcast
10:55 AM 42.8°F 41.0°F 93% 29.82 in 9.0 miles SSE 10.4 mph - N/A   Overcast
11:15 AM 42.8°F 41.0°F 93% 29.82 in 7.0 miles South 8.1 mph - N/A   Overcast
11:35 AM 44.6°F 39.2°F 81% 29.82 in 8.0 miles SSE 9.2 mph - N/A   Mostly Cloudy
11:55 AM 44.6°F 39.2°F 81% 29.82 in 6.0 miles South 10.4 mph - N/A   Scattered Clouds
12:15 PM 44.6°F 41.0°F 87% 29.82 in 5.0 miles South 9.2 mph - N/A   Mostly Cloudy
12:35 PM 44.6°F 41.0°F 87% 29.82 in 5.0 miles South 9.2 mph - N/A   Overcast
12:55 PM 44.6°F 41.0°F 87% 29.82 in 4.0 miles South 8.1 mph - N/A   Mostly Cloudy
1:15 PM 42.8°F 41.0°F 93% 29.82 in 9.0 miles South 8.1 mph - 0.01 in   Mostly Cloudy
1:35 PM 42.8°F 41.0°F 93% 29.82 in 8.0 miles South 8.1 mph - 0.01 in   Mostly Cloudy
1:55 PM 44.6°F 41.0°F 87% 29.82 in 5.0 miles South 9.2 mph - 0.01 in   Mostly Cloudy
2:15 PM 44.6°F 41.0°F 87% 29.82 in 8.0 miles SSE 9.2 mph - N/A   Mostly Cloudy
2:35 PM 44.6°F 41.0°F 87% 29.83 in 8.0 miles South 11.5 mph - N/A   Overcast
2:55 PM 42.8°F 41.0°F 93% 29.83 in 4.0 miles South 11.5 mph 16.1 mph N/A   Overcast
3:15 PM 42.8°F 41.0°F 93% 29.84 in 7.0 miles South 8.1 mph - N/A Rain Light Rain
3:35 PM 42.8°F 41.0°F 93% 29.85 in 4.0 miles South 8.1 mph - N/A Rain Light Rain
4:15 PM 42.8°F 41.0°F 93% 29.86 in 8.0 miles South 6.9 mph - 0.01 in   Overcast
4:35 PM 42.8°F 41.0°F 93% 29.86 in 5.0 miles SSE 8.1 mph - 0.01 in   Overcast
4:55 PM 41.0°F 41.0°F 100% 29.87 in 10.0 miles SSW 6.9 mph - 0.01 in   Overcast
5:15 PM 41.0°F 41.0°F 100% 29.87 in 5.0 miles South 5.8 mph - N/A Rain Light Rain
5:35 PM 41.0°F 41.0°F 100% 29.88 in 10.0 miles South 8.1 mph - N/A Rain Light Rain
5:55 PM 41.0°F 41.0°F 100% 29.88 in 9.0 miles SSE 6.9 mph - N/A Rain Light Rain
6:15 PM 41.0°F 41.0°F 100% 29.88 in 10.0 miles South 6.9 mph - N/A   Overcast
6:35 PM 41.0°F 41.0°F 100% 29.89 in 10.0 miles SSW 6.9 mph - N/A   Overcast
6:55 PM 41.0°F 39.2°F 93% 29.89 in 9.0 miles SSW 8.1 mph - N/A   Overcast
7:15 PM 41.0°F 39.2°F 93% 29.90 in 10.0 miles South 6.9 mph - N/A Rain Light Rain
7:35 PM 41.0°F 39.2°F 93% 29.91 in 9.0 miles SSW 5.8 mph - N/A   Overcast
7:55 PM 41.0°F 39.2°F 93% 29.91 in 7.0 miles SSW 6.9 mph - 0.01 in   Overcast
8:15 PM 41.0°F 39.2°F 93% 29.91 in 9.0 miles South 6.9 mph - N/A   Overcast
8:35 PM 41.0°F 39.2°F 93% 29.92 in 9.0 miles South 8.1 mph - N/A   Overcast
8:55 PM 41.0°F 39.2°F 93% 29.93 in 10.0 miles South 6.9 mph - N/A   Overcast
9:15 PM 41.0°F 39.2°F 93% 29.93 in 10.0 miles South 6.9 mph - N/A   Overcast
9:35 PM 41.0°F 39.2°F 93% 29.94 in 7.0 miles SSE 8.1 mph - N/A Rain Light Rain
9:55 PM 41.0°F 39.2°F 93% 29.95 in 10.0 miles South 6.9 mph - N/A   Overcast
10:15 PM 41.0°F 39.2°F 93% 29.95 in 10.0 miles South 9.2 mph - 0.01 in   Overcast
10:35 PM 41.0°F 39.2°F 93% 29.96 in 10.0 miles South 8.1 mph - 0.01 in   Overcast
10:55 PM 41.0°F 39.2°F 93% 29.97 in 10.0 miles South 8.1 mph - 0.01 in   Overcast
11:15 PM 41.0°F 39.2°F 93% 29.98 in 9.0 miles South 8.1 mph - N/A Rain Light Rain
11:35 PM 41.0°F 39.2°F 93% 29.98 in 9.0 miles South 8.1 mph - N/A   Overcast
11:55 PM 41.0°F 39.2°F 93% 29.98 in 10.0 miles South 6.9 mph - N/A   Overcast
Moon Phase
Dec. 26 Dec. 28 Jan. 04 Jan. 11 Jan. 18
Sunrise:07:55 AM (PST) Moon Rise:03:29 PM (PST)12/26
Sunset:04:30 PM (PST) Moon Set:06:22 AM (PST)12/26

Copyright © 2014 The Weather Underground, Inc.